This is the latest recevied weather packets stored in our database for station/object XE2G-31. If no packets are shown the sender has not sent any weather packets the latest 10 day(s).
| Time | Temp. | Humidity | Pressure | Rain* | Wind** | Luminosity | Snow |
|---|---|---|---|---|---|---|---|
| 1777535246 | 24.44° C | 67% | 869 hPa | - | - | - | - |
| 1777534300 | 24.44° C | 67% | 869 hPa | - | - | - | - |
| 1777533353 | 24.44° C | 68% | 869 hPa | - | - | - | - |
| 1777532406 | 24.44° C | 68% | 869 hPa | - | - | - | - |
| 1777531459 | 24.44° C | 67% | 869 hPa | - | - | - | - |
| 1777530512 | 24.44° C | 66% | 869 hPa | - | - | - | - |
| 1777529565 | 25° C | 66% | 870 hPa | - | - | - | - |
| 1777528618 | 25° C | 65% | 870 hPa | - | - | - | - |
| 1777527672 | 25° C | 66% | 870 hPa | - | - | - | - |
| 1777526725 | 25° C | 64% | 870 hPa | - | - | - | - |
| 1777525778 | 25.56° C | 61% | 870 hPa | - | - | - | - |
| 1777524831 | 26.11° C | 60% | 870 hPa | - | - | - | - |
| 1777523884 | 25.56° C | 61% | 870 hPa | - | - | - | - |
| 1777522937 | 26.11° C | 61% | 870 hPa | - | - | - | - |
| 1777521990 | 26.11° C | 61% | 870 hPa | - | - | - | - |
| 1777521044 | 26.11° C | 59% | 870 hPa | - | - | - | - |
| 1777520097 | 26.11° C | 57% | 870 hPa | - | - | - | - |
| 1777519150 | 26.67° C | 55% | 869 hPa | - | - | - | - |
| 1777518203 | 26.67° C | 54% | 869 hPa | - | - | - | - |
| 1777517256 | 27.22° C | 53% | 869 hPa | - | - | - | - |
| 1777516309 | 27.78° C | 50% | 869 hPa | - | - | - | - |
| 1777515363 | 28.33° C | 49% | 869 hPa | - | - | - | - |
| 1777514416 | 28.33° C | 43% | 869 hPa | - | - | - | - |
| 1777513469 | 28.33° C | 41% | 869 hPa | - | - | - | - |
| 1777512522 | 29.44° C | 41% | 869 hPa | - | - | - | - |
* Rain since midnight (hover to see other rain measurements)
** Current wind speed in m/s (hover to see current wind gust speed)